Location: Kvarnån
(66.4000°N, 22.2667°E)
Time: 21:48:20
(UTC+00:00)

Nadezhda 1 Rocket - Pass Details

Date: 15 October 2024
Orbit: 940 x 1005 km, 83.0° (Epoch: 06 November)

Event Time Altitude Azimuth Distance (km) Brightness Sun altitude
Exits shadow 19:42:18 45° 74° (ENE) 1,348 4.5 -26.8°
Drops below altitude 10° 19:47:46 10° 19° (NNE) 2,790 6.7 -27.2°
Sets 19:50:23 0° 14° (NNE) 3,739 7.5 -27.4°
